Temperature
5 6 6 7 7 7 7 6 6 6 6 6 5 4 4 5 5 6 7 7 7 7 8 8 8 9 9 9 9 9 9 9 9 9 8 8 8 8 8 8 8 8 8 8
5 6 6 6 6 6 6 6 6 6 6 5 5 4 4 4 4 4 5 5 6 6 7 7 7 8 8 8 8 8 8 8 8 8 8 7 7 7 7 7 7 7 7 7
5 5 7 5 5 5 5 5 5 6 5 4 4 3 3 3 3 3 3 4 5 5 6 6 6 6 7 7 7 7 8 7 7 7 7 7 7 7 7 7 7 7 7 6
4 6 5 5 5 5 4 4 4 4 3 3 3 3 3 3 3 3 3 3 4 4 5 5 5 5 6 6 6 7 7 7 7 7 7 6 6 6 6 6 6 6 6 5
3 4 4 5 5 4 5 4 3 3 3 2 3 3 3 3 2 2 3 3 3 3 3 4 4 4 5 5 6 6 6 6 6 6 6 6 6 6 6 5 5 5 5 4
3 5 5 5 5 4 5 4 3 2 2 2 2 2 2 2 2 2 2 2 2 2 3 3 3 3 4 4 5 5 5 5 5 5 5 5 5 5 5 5 4 4 4 3
3 4 3 4 4 5 4 4 2 2 2 2 1 1 2 2 2 2 2 2 2 2 2 2 2 2 3 3 3 4 4 4 4 4 5 5 4 4 4 4 4 3 3 3
3 4 4 3 3 3 3 2 2 2 2 1 1 1 1 1 1 1 1 1 1 1 1 1 1 1 2 2 2 3 3 3 4 4 4 4 4 3 3 3 3 3 2 2
2 3 2 2 2 3 3 2 2 2 1 1 1 1 1 0 0 0 0 0 0 0 0 1 1 0 1 1 1 2 2 2 3 3 3 3 3 3 2 2 2 2 2 2
2 1 1 2 2 2 2 2 2 1 1 1 0 0 0 0 0 -0 -0 -0 -0 -0 -0 0 0 0 -0 0 0 1 1 2 2 2 2 2 2 2 2 2 2 2 2 2
1 1 1 1 2 2 2 2 1 1 1 0 -0 -0 -0 -1 -1 -1 -1 -1 -1 -1 -1 -1 -1 -0 -0 -1 -1 -0 0 1 1 1 1 1 1 1 1 2 1 1 1 1
1 2 0 2 2 2 1 1 1 0 0 0 -0 -1 -1 -1 -1 -1 -1 -2 -2 -2 -2 -2 -2 -1 -1 -1 -1 -1 -1 -0 0 0 0 1 1 1 1 1 1 1 1 1
3 3 3 2 2 1 1 1 0 0 -0 -0 -1 -1 -1 -1 -1 -2 -2 -2 -2 -2 -2 -2 -2 -2 -2 -2 -2 -2 -2 -1 -1 -1 -0 -0 -0 0 0 1 1 1 1 0
3 2 2 2 1 1 1 0 0 -0 -0 -1 -1 -1 -1 -2 -2 -2 -2 -2 -2 -3 -3 -3 -3 -3 -3 -3 -3 -2 -2 -2 -2 -1 -1 -1 -1 -0 -0 0 0 0 0 0
2 2 2 1 1 1 0 0 -0 -0 -0 -1 -1 -1 -2 -2 -2 -2 -2 -3 -3 -3 -3 -3 -3 -3 -3 -3 -3 -3 -3 -3 -2 -2 -2 -2 -1 -1 -1 -1 -0 -0 0 0
2 1 1 1 1 0 0 -0 -0 -0 -1 -1 -1 -2 -2 -2 -2 -2 -2 -3 -3 -3 -3 -3 -3 -4 -4 -4 -4 -4 -4 -4 -4 -3 -3 -3 -2 -2 -2 -1 -1 -1 -1 -0
1 1 1 1 0 0 -0 -0 -1 -1 -1 -1 -2 -2 -2 -2 -2 -3 -3 -3 -4 -4 -4 -4 -4 -4 -4 -4 -5 -5 -4 -4 -4 -4 -4 -3 -3 -3 -2 -2 -2 -1 -1 -1
2 1 1 1 0 -0 -0 -1 -1 -1 -2 -2 -2 -2 -3 -3 -3 -3 -3 -4 -4 -4 -4 -4 -4 -4 -5 -5 -5 -5 -5 -5 -5 -5 -4 -4 -4 -3 -3 -2 -2 -2 -1 -1
1 1 0 0 -0 -1 -1 -1 -1 -2 -2 -2 -3 -3 -3 -3 -4 -4 -4 -4 -4 -4 -4 -5 -5 -5 -5 -5 -5 -5 -5 -5 -5 -5 -5 -5 -4 -4 -3 -3 -3 -2 -2 -2
0 0 -0 -0 -1 -1 -1 -1 -2 -2 -2 -3 -3 -3 -3 -4 -4 -4 -5 -5 -4 -5 -5 -5 -5 -5 -5 -5 -6 -6 -6 -6 -6 -6 -5 -5 -5 -5 -4 -4 -3 -3 -3 -2
0 -0 -0 -1 -1 -1 -1 -2 -2 -2 -3 -3 -4 -4 -4 -4 -4 -5 -5 -5 -5 -5 -5 -5 -6 -6 -6 -6 -6 -6 -6 -6 -6 -6 -6 -5 -5 -5 -5 -4 -4 -3 -3 -3
-0 -0 -1 -1 -1 -1 -2 -2 -3 -3 -3 -3 -4 -4 -5 -5 -5 -5 -5 -5 -5 -6 -6 -6 -6 -6 -6 -6 -6 -6 -6 -6 -6 -6 -6 -6 -6 -5 -5 -5 -4 -4 -4 -3
-0 -1 -1 -2 -2 -2 -2 -3 -3 -3 -4 -4 -4 -5 -5 -5 -6 -6 -6 -6 -6 -6 -6 -6 -6 -7 -6 -6 -6 -6 -6 -6 -6 -6 -6 -6 -6 -6 -5 -5 -5 -4 -4 -4
-1 -1 -2 -2 -2 -3 -3 -3 -4 -4 -4 -5 -5 -5 -6 -6 -6 -6 -7 -7 -7 -7 -7 -7 -7 -7 -7 -7 -7 -7 -7 -6 -6 -6 -6 -6 -6 -6 -6 -5 -5 -5 -5 -5
-1 -2 -2 -3 -3 -3 -4 -4 -4 -4 -5 -5 -5 -6 -6 -7 -7 -7 -7 -7 -7 -7 -7 -7 -7 -7 -7 -7 -7 -7 -7 -7 -7 -7 -7 -6 -6 -6 -6 -6 -6 -5 -5 -5
-2 -2 -3 -3 -4 -4 -4 -5 -5 -6 -6 -6 -6 -6 -7 -7 -8 -8 -8 -8 -8 -8 -8 -8 -8 -8 -8 -8 -8 -8 -8 -7 -7 -7 -7 -7 -7 -6 -6 -6 -6 -6 -5 -5
-2 -3 -3 -3 -4 -4 -5 -6 -6 -6 -7 -7 -7 -8 -8 -8 -8 -8 -8 -8 -9 -8 -8 -8 -8 -8 -8 -8 -8 -8 -8 -8 -8 -8 -7 -7 -7 -7 -7 -7 -6 -6 -6 -6
Wind_Speed
3 3 2 2 1 2 3 4 5 4 4 2 1 1 3 4 6 8 9 10 10 9 9 9 9 8 7 6 5 4 3 4 5 5 5 5 6 6 6 6 6 6 6 5
5 6 4 4 4 2 2 2 3 3 1 0 2 3 4 5 6 8 8 8 9 9 9 9 9 9 8 7 6 5 5 5 5 5 5 6 6 6 6 6 6 6 6 6
2 4 4 3 3 1 1 1 2 3 2 1 2 2 2 3 5 6 7 8 9 9 8 9 9 8 9 8 7 6 6 5 5 5 6 7 7 7 7 7 6 6 6 6
2 3 1 3 2 3 4 2 2 2 2 2 1 1 2 3 4 6 7 8 9 9 9 9 8 8 8 8 7 6 6 5 5 5 6 6 7 8 7 6 6 6 6 6
3 1 3 3 0 2 3 0 1 2 2 3 2 2 1 3 4 4 6 7 7 8 8 9 9 9 8 8 7 6 6 6 5 5 6 7 8 8 6 6 6 6 5 7
3 2 3 2 1 1 2 1 1 3 2 2 3 1 2 3 6 6 7 7 7 8 7 8 9 9 8 8 7 7 8 7 6 5 7 8 9 7 6 6 6 7 6 6
3 2 5 3 2 1 3 3 2 2 2 1 1 3 4 6 6 6 7 8 8 8 8 8 9 8 8 8 8 9 8 7 6 6 7 7 7 6 6 7 7 7 7 6
4 3 6 1 2 4 3 2 3 2 1 1 3 5 5 6 7 8 8 8 7 7 8 8 8 8 9 9 9 9 8 7 6 5 5 5 6 6 7 8 8 7 7 6
6 5 1 1 2 1 3 3 2 2 1 2 3 4 5 6 7 7 8 8 7 8 9 8 8 7 9 10 9 9 8 7 6 5 5 5 7 8 7 8 7 7 7 7
2 4 3 2 2 2 2 3 2 1 2 2 4 5 6 7 7 7 8 8 8 9 10 10 9 8 9 10 9 8 8 7 6 5 5 6 6 7 8 8 8 8 8 8
3 3 2 4 5 4 2 2 1 1 2 3 4 6 6 7 7 8 8 8 8 8 10 11 11 10 10 9 9 9 9 7 6 6 6 6 7 8 9 9 10 10 9 8
6 6 6 5 5 5 4 3 2 2 3 3 4 6 7 7 7 8 8 8 9 9 10 11 11 11 10 9 8 9 8 7 6 5 5 5 6 6 11 12 14 16 13 11
3 3 4 2 4 4 3 3 3 3 4 5 5 6 7 7 7 8 9 9 9 10 11 11 11 11 11 9 8 8 9 9 7 6 6 6 6 6 6 8 14 16 17 17
4 4 3 3 3 3 2 2 2 3 4 5 6 6 7 8 8 9 10 10 10 11 11 11 11 11 10 9 9 9 9 9 8 7 6 6 6 6 6 6 6 7 12 18
4 4 4 3 2 2 1 1 3 5 5 6 5 7 7 9 10 11 10 10 10 11 11 10 11 11 9 9 9 10 9 7 7 7 6 6 6 6 6 7 7 6 4 8
4 3 3 2 2 2 2 3 4 6 6 7 8 8 9 9 10 11 10 9 10 12 12 11 12 11 9 9 9 8 8 11 10 8 6 6 6 6 6 7 7 6 7 7
6 4 4 3 4 4 4 5 6 7 7 8 9 9 9 10 11 11 11 9 9 11 12 12 12 11 9 8 8 7 7 8 11 8 6 6 6 7 6 6 7 7 7 8
5 4 4 4 4 5 6 6 6 7 8 8 9 9 9 10 11 12 12 11 11 12 11 10 10 10 9 8 8 7 7 7 7 7 7 7 7 7 6 6 7 7 6 7
3 3 3 3 4 4 6 7 7 7 8 8 9 9 10 10 11 11 11 11 12 13 10 8 13 10 9 9 10 7 7 7 7 7 7 9 8 7 6 6 6 6 6 6
2 2 2 3 3 4 6 6 7 8 8 7 8 10 11 11 10 10 10 11 10 9 10 11 10 9 9 9 11 7 7 7 7 7 7 7 7 7 6 6 6 6 6 6
2 2 3 4 5 6 6 6 7 8 9 7 8 10 11 12 10 9 9 11 9 8 9 13 9 7 8 9 11 7 7 7 7 7 7 7 7 7 7 6 6 6 5 5
2 3 4 5 5 7 6 6 6 8 9 9 9 9 10 11 11 10 9 9 10 13 10 7 7 11 12 13 7 7 7 7 7 6 6 6 6 6 6 6 6 5 5 4
2 3 4 5 6 7 8 7 7 7 8 9 10 10 10 10 8 9 10 7 7 13 11 8 12 16 17 10 6 7 7 7 6 6 6 6 6 6 6 6 5 4 4 3
2 3 4 4 4 5 7 8 7 7 8 9 9 9 9 9 8 7 8 13 16 17 10 12 17 17 15 7 6 6 6 6 6 6 6 5 5 5 5 4 4 3 3 3
3 3 3 4 5 5 7 8 8 8 8 7 9 8 7 7 8 9 8 10 14 15 9 12 16 16 9 6 6 6 6 6 6 5 5 4 4 4 4 3 3 2 2 2
2 3 4 4 5 5 5 6 6 7 8 9 9 7 7 7 8 8 8 9 10 13 10 7 8 10 7 7 7 6 6 6 6 5 4 4 4 3 3 2 2 2 1 1
3 3 3 4 4 4 5 5 6 7 8 9 10 9 8 8 8 8 9 8 8 8 8 7 6 6 6 6 6 6 5 5 5 4 4 3 3 2 2 2 2 1 1 1
Wind_Direction
55 46 95 79 71 86 102 149 156 177 172 226 233 84 47 37 39 38 29 20 11 3 354 350 347 342 335 325 318 306 276 246 233 216 193 177 170 165 158 156 156 153 146 144
33 23 60 52 26 64 85 113 136 133 187 332 78 81 55 41 38 30 15 3 357 352 347 342 336 330 325 319 311 296 271 258 241 210 194 188 180 169 162 158 155 155 158 159
14 338 29 352 314 195 121 65 145 183 218 85 62 66 60 47 39 23 0 349 344 338 330 326 320 318 314 308 305 293 274 262 240 214 204 197 182 173 174 171 166 167 171 172
87 52 279 268 343 124 116 58 45 88 66 59 39 72 93 72 39 4 347 340 334 329 325 320 315 314 310 307 303 295 285 271 249 221 211 195 185 187 183 173 175 178 182 184
96 93 284 292 351 128 129 3 26 111 65 30 17 53 19 44 15 341 327 319 313 312 310 313 316 316 316 313 307 299 291 280 258 228 213 200 198 196 186 178 183 185 183 185
110 137 248 265 274 266 119 273 166 123 96 36 59 13 291 345 337 326 320 315 313 314 314 318 318 320 320 316 311 303 296 286 266 233 216 211 207 197 186 184 188 184 187 189
132 214 266 266 285 111 160 253 140 130 124 99 209 235 284 314 316 313 310 309 312 315 315 313 314 320 320 316 309 303 299 288 268 241 226 217 204 192 183 183 181 187 193 197
152 203 256 313 114 163 193 126 125 137 149 234 270 287 301 308 310 313 312 312 315 317 315 313 316 320 318 313 307 306 301 289 274 253 234 213 197 193 186 183 188 194 198 204
189 209 237 345 157 132 140 143 156 171 234 274 284 293 304 305 308 311 312 315 316 314 313 314 315 316 311 309 309 309 304 293 282 262 236 211 201 199 193 193 198 201 202 210
219 242 210 188 152 129 136 152 170 201 248 268 280 291 300 304 310 315 316 316 318 318 316 315 316 314 306 307 308 307 303 294 280 259 242 221 213 206 203 202 205 205 207 212
232 233 205 232 208 183 159 143 145 257 257 268 283 294 299 304 307 309 310 312 313 312 310 309 312 311 311 309 309 306 302 294 280 260 246 233 224 220 216 214 210 207 210 206
215 208 191 216 195 177 176 199 225 259 286 288 279 283 292 294 293 297 301 304 305 305 305 305 308 307 308 307 306 304 302 297 285 268 255 243 237 240 230 226 226 223 217 209
196 165 168 179 160 168 186 219 241 257 268 281 283 279 286 289 291 295 297 299 300 300 300 301 303 303 306 307 304 299 298 296 289 274 262 251 241 238 244 235 230 230 227 224
158 131 142 172 183 186 203 235 259 273 272 270 277 285 287 288 291 293 292 293 295 296 296 297 298 299 303 307 303 298 297 296 292 279 269 260 249 242 238 235 233 230 229 228
181 176 176 171 165 191 214 249 283 288 289 290 284 285 288 290 291 291 291 292 295 294 294 294 295 296 300 302 302 300 298 294 292 288 277 271 263 252 244 237 236 231 219 224
165 150 155 175 216 238 250 261 272 281 287 288 289 287 284 282 285 288 290 290 292 294 295 294 292 292 294 295 296 295 293 293 295 292 285 276 268 259 251 243 238 232 228 221
155 187 205 224 240 252 253 254 258 270 279 281 283 288 292 294 294 292 291 287 282 283 285 285 287 290 289 287 287 287 288 292 294 291 284 280 275 267 258 249 243 237 233 221
189 193 194 209 229 251 267 271 269 273 275 279 288 292 291 290 290 293 295 297 295 291 284 276 279 288 287 284 282 280 281 282 285 287 285 282 280 274 267 258 249 245 242 232
184 195 212 232 240 245 258 269 275 277 281 287 289 287 285 283 283 288 294 297 296 295 292 283 296 298 291 290 292 278 275 276 278 281 281 285 286 278 273 265 256 247 240 231
177 198 233 259 261 252 265 276 282 285 284 283 286 289 290 289 288 291 293 289 279 275 282 291 295 289 286 286 291 278 273 272 272 275 277 277 279 280 276 271 265 255 243 235
207 241 264 276 283 279 272 276 282 287 292 288 285 287 291 294 293 290 291 293 290 283 287 293 294 288 289 289 290 278 272 270 269 268 269 271 275 278 277 273 271 266 255 242
221 248 268 280 287 291 290 284 281 285 292 292 289 288 292 295 296 292 278 274 287 299 304 291 290 292 298 297 285 277 272 269 269 268 266 266 269 273 277 276 272 268 262 251
235 253 271 279 283 289 297 293 285 286 289 292 295 295 292 290 292 293 297 293 295 302 305 292 298 302 304 301 288 283 279 274 271 271 270 267 266 269 271 272 271 268 262 256
249 268 277 284 290 295 299 301 301 294 287 288 285 285 289 296 295 278 278 298 308 308 303 301 307 308 309 302 292 287 282 279 274 271 269 268 268 266 266 268 268 267 262 256
265 277 286 300 301 294 292 303 308 305 303 300 296 292 288 285 289 299 299 300 307 311 306 307 311 313 312 300 296 291 287 282 279 276 268 268 269 269 267 264 261 262 264 257
274 284 284 280 279 286 296 304 307 309 311 311 310 307 304 302 299 300 303 302 302 310 310 303 305 309 306 300 297 295 292 293 294 291 284 279 275 274 274 272 268 265 265 259
296 291 295 300 297 292 295 298 301 307 310 309 310 312 314 314 312 312 311 311 311 309 307 306 305 305 304 303 302 301 299 297 293 289 287 282 279 275 274 274 276 276 272 257
Height
1474 1472 1472 1472 1472 1472 1474 1478 1483 1483 1485 1485 1485 1485 1485 1484 1482 1481 1481 1481 1481 1480 1479 1479 1478 1477 1476 1475 1474 1473 1472 1472 1472 1473 1473 1474 1475 1476 1478 1479 1481 1482 1482 1483
1477 1475 1474 1475 1476 1475 1476 1478 1480 1482 1485 1485 1485 1485 1485 1485 1484 1483 1483 1482 1482 1480 1479 1478 1476 1475 1473 1472 1471 1470 1469 1468 1468 1468 1469 1469 1471 1472 1473 1475 1476 1477 1477 1478
1483 1479 1474 1482 1481 1480 1480 1482 1481 1483 1485 1485 1485 1486 1486 1486 1486 1485 1484 1483 1481 1479 1478 1476 1474 1472 1470 1468 1467 1465 1464 1463 1463 1463 1463 1464 1466 1467 1468 1470 1471 1472 1472 1473
1487 1481 1487 1485 1481 1480 1482 1484 1484 1484 1485 1485 1486 1486 1486 1486 1486 1485 1484 1482 1480 1478 1476 1474 1471 1469 1467 1465 1463 1461 1459 1459 1458 1458 1458 1459 1460 1461 1463 1464 1466 1466 1467 1467
1490 1490 1487 1483 1481 1482 1482 1484 1485 1485 1486 1486 1486 1486 1486 1486 1486 1485 1483 1481 1479 1477 1474 1471 1468 1465 1462 1460 1458 1456 1455 1454 1453 1453 1453 1453 1454 1456 1457 1459 1460 1461 1461 1462
1489 1486 1485 1483 1482 1481 1483 1484 1486 1485 1486 1486 1486 1489 1488 1486 1485 1483 1482 1479 1476 1474 1471 1468 1465 1461 1458 1456 1454 1452 1450 1449 1448 1448 1448 1448 1449 1450 1451 1453 1454 1455 1455 1456
1489 1489 1487 1483 1481 1481 1488 1485 1485 1485 1486 1486 1487 1488 1487 1484 1483 1481 1479 1476 1473 1470 1467 1464 1461 1458 1454 1452 1450 1448 1446 1444 1443 1442 1442 1443 1443 1444 1445 1446 1447 1448 1450 1451
1489 1489 1489 1482 1481 1483 1484 1483 1484 1485 1485 1485 1485 1484 1483 1481 1479 1477 1475 1472 1469 1466 1463 1461 1457 1454 1450 1448 1445 1443 1441 1439 1438 1437 1437 1437 1437 1438 1439 1440 1441 1442 1443 1445
1485 1485 1482 1480 1480 1481 1482 1482 1483 1483 1484 1483 1482 1481 1479 1478 1476 1473 1471 1468 1465 1462 1459 1456 1453 1450 1447 1444 1441 1438 1436 1434 1433 1432 1431 1431 1431 1432 1433 1434 1435 1435 1437 1438
1482 1480 1480 1480 1480 1480 1481 1482 1482 1482 1481 1481 1480 1478 1476 1474 1472 1470 1467 1464 1461 1458 1455 1452 1449 1446 1443 1439 1436 1433 1431 1429 1428 1426 1426 1425 1425 1426 1427 1428 1428 1429 1431 1432
1480 1479 1479 1478 1478 1479 1480 1480 1480 1479 1479 1478 1477 1475 1473 1471 1469 1466 1463 1461 1457 1454 1450 1447 1444 1441 1438 1435 1431 1428 1426 1424 1422 1421 1420 1420 1420 1420 1420 1421 1423 1424 1425 1427
1476 1473 1474 1474 1475 1477 1477 1478 1478 1477 1476 1475 1474 1472 1469 1467 1465 1462 1459 1456 1453 1449 1446 1442 1439 1435 1433 1430 1427 1423 1421 1419 1417 1416 1415 1414 1414 1414 1414 1415 1416 1417 1419 1421
1470 1470 1472 1473 1474 1475 1475 1476 1475 1474 1473 1472 1470 1468 1466 1463 1460 1458 1455 1452 1448 1444 1441 1437 1433 1430 1427 1424 1421 1418 1416 1414 1412 1410 1409 1409 1408 1408 1408 1409 1410 1411 1412 1414
1468 1469 1470 1471 1472 1473 1473 1473 1473 1472 1470 1469 1467 1464 1462 1459 1456 1453 1450 1447 1443 1439 1435 1432 1428 1425 1422 1419 1416 1413 1411 1409 1407 1405 1404 1403 1403 1402 1403 1403 1403 1404 1406 1408
1467 1468 1469 1470 1470 1471 1471 1470 1469 1468 1467 1465 1463 1460 1458 1454 1451 1448 1445 1441 1437 1433 1430 1426 1422 1419 1417 1413 1410 1407 1405 1403 1401 1399 1398 1397 1397 1396 1396 1397 1397 1398 1400 1401
1465 1466 1467 1468 1468 1468 1468 1467 1466 1464 1463 1461 1458 1456 1453 1449 1446 1442 1439 1436 1432 1427 1424 1420 1417 1413 1411 1407 1404 1402 1399 1397 1396 1394 1392 1391 1391 1390 1390 1390 1391 1392 1393 1395
1463 1464 1465 1466 1466 1466 1465 1464 1463 1461 1459 1456 1454 1451 1447 1444 1440 1437 1433 1430 1426 1422 1418 1415 1411 1407 1405 1402 1399 1396 1394 1391 1390 1388 1387 1386 1385 1384 1384 1384 1385 1386 1387 1388
1462 1463 1463 1463 1463 1463 1462 1461 1459 1457 1454 1452 1449 1445 1442 1439 1435 1431 1427 1423 1420 1416 1413 1409 1405 1402 1399 1396 1393 1390 1388 1386 1384 1383 1381 1380 1379 1379 1378 1378 1378 1379 1380 1382
1460 1461 1461 1461 1460 1459 1458 1457 1455 1452 1450 1447 1443 1440 1437 1433 1429 1425 1421 1417 1413 1409 1406 1403 1400 1396 1393 1390 1387 1385 1382 1380 1379 1377 1376 1375 1374 1373 1373 1372 1373 1373 1374 1375
1458 1459 1459 1458 1457 1456 1454 1452 1450 1448 1445 1442 1438 1434 1430 1427 1424 1419 1415 1412 1409 1405 1401 1397 1394 1391 1387 1385 1382 1379 1377 1375 1373 1372 1370 1369 1368 1368 1367 1367 1367 1367 1368 1369
1456 1456 1456 1455 1454 1453 1451 1448 1445 1442 1440 1436 1433 1428 1425 1421 1418 1414 1409 1405 1402 1399 1395 1392 1388 1385 1382 1379 1376 1374 1372 1370 1368 1367 1365 1364 1363 1362 1362 1361 1361 1361 1362 1363
1453 1453 1453 1452 1450 1448 1447 1444 1441 1437 1434 1431 1427 1423 1419 1415 1411 1407 1404 1401 1396 1393 1389 1386 1382 1379 1376 1374 1371 1369 1366 1365 1363 1361 1360 1359 1358 1357 1357 1356 1356 1356 1356 1357
1451 1450 1449 1448 1446 1444 1442 1439 1436 1433 1429 1425 1422 1418 1413 1409 1405 1401 1397 1394 1390 1387 1383 1380 1377 1374 1371 1368 1365 1363 1361 1359 1357 1356 1355 1354 1353 1352 1352 1351 1351 1351 1351 1352
1448 1447 1446 1444 1442 1439 1437 1434 1431 1427 1424 1420 1416 1412 1408 1403 1399 1396 1392 1388 1384 1381 1377 1374 1371 1368 1365 1362 1360 1357 1355 1353 1352 1351 1349 1349 1348 1347 1347 1347 1347 1347 1347 1347
1445 1444 1442 1440 1438 1435 1432 1428 1425 1421 1418 1414 1410 1407 1403 1398 1394 1389 1386 1382 1378 1374 1371 1368 1365 1362 1359 1356 1354 1352 1350 1348 1347 1345 1344 1344 1343 1342 1342 1342 1342 1342 1342 1342
1442 1440 1439 1436 1434 1430 1427 1423 1420 1416 1412 1407 1403 1400 1397 1393 1389 1384 1380 1376 1373 1369 1366 1362 1359 1357 1354 1351 1349 1347 1345 1343 1342 1341 1340 1339 1338 1338 1338 1338 1338 1338 1338 1338
1438 1436 1434 1432 1430 1426 1423 1419 1415 1411 1407 1403 1398 1394 1391 1387 1383 1379 1375 1371 1367 1364 1361 1358 1355 1352 1349 1347 1344 1342 1341 1339 1338 1337 1336 1335 1334 1334 1334 1334 1334 1334 1334 1335